| time (UTC) | temp C | wind direction | speed KPH | gust KPH | rain 1hr cm | rain 24hr cm | rain mn cm | humidity % | barometer mb |
| 20260508054507 | 8 | 158 | 3.2 | 9.7 | 0.00 | 0.00 | 0.00 | 44 | 10.2 |
| 20260508050723 | 6 | 110 | 3.2 | 11.3 | 0.00 | 0.00 | 0.00 | 49 | 1025.3 |
| 20260508050721 | 6 | 110 | 3.2 | 11.3 | 0.00 | 0.00 | 0.00 | 49 | 1025.3 |
| 20260508010736 | 1 | 171 | 4.8 | 8.0 | 0.00 | 0.00 | 0.00 | 63 | 1022.5 |
| 20260508004906 | 2 | 157 | 4.8 | 9.7 | 0.00 | 0.00 | 0.00 | 62 | 1022.3 |
| 20260508003231 | 2 | 175 | 3.2 | 9.7 | 0.00 | 0.00 | 0.00 | 61 | 1022.1 |
| 20260508001557 | 2 | 166 | 4.8 | 9.7 | 0.00 | 0.00 | 0.00 | 60 | 1021.8 |
| 20260507235731 | 2 | 157 | 4.8 | 11.3 | 0.00 | 0.00 | 0.00 | 58 | 1021.6 |
| 20260507233911 | 3 | 195 | 3.2 | 8.0 | 0.00 | 0.00 | 0.00 | 57 | 1021.4 |
| 20260507232256 | 3 | 182 | 3.2 | 9.7 | 0.00 | 0.00 | 0.00 | 54 | 1021.2 |
| 20260507230317 | 3 | 148 | 3.2 | 9.7 | 0.00 | 0.00 | 0.00 | 53 | 1021.0 |
| 20260507224701 | 3 | 191 | 3.2 | 9.7 | 0.00 | 0.00 | 0.00 | 52 | 1020.7 |
| 20260507221206 | 4 | 170 | 3.2 | 9.7 | 0.00 | 0.00 | 0.00 | 49 | 1020.4 |
| 20260507215351 | 5 | 184 | 4.8 | 11.3 | 0.00 | 0.00 | 0.00 | 47 | 1020.2 |
| 20260507215348 | 5 | 184 | 4.8 | 11.3 | 0.00 | 0.00 | 0.00 | 47 | 1020.2 |
| 20260507213651 | 5 | 194 | 3.2 | 9.7 | 0.00 | 0.00 | 0.00 | 47 | 1020.0 |
| 20260507211906 | 5 | 177 | 3.2 | 9.7 | 0.00 | 0.00 | 0.00 | 43 | 1019.8 |
| 20260507210256 | 6 | 108 | 3.2 | 11.3 | 0.00 | 0.00 | 0.00 | 41 | 1019.6 |
| 20260507202846 | 6 | 176 | 3.2 | 11.3 | 0.00 | 0.00 | 0.00 | 40 | 1019.1 |
| 20260507200942 | 7 | 136 | 3.2 | 9.7 | 0.00 | 0.00 | 0.00 | 38 | 1018.9 |
| 20260507193221 | 6 | 128 | 3.2 | 11.3 | 0.00 | 0.00 | 0.00 | 39 | 1018.3 |
| 20260507191226 | 5 | 133 | 3.2 | 14.5 | 0.00 | 0.00 | 0.00 | 48 | 1017.9 |
| 20260507191222 | 5 | 133 | 3.2 | 14.5 | 0.00 | 0.00 | 0.00 | 48 | 1017.9 |
| 20260507183557 | 6 | 103 | 6.4 | 9.7 | 0.00 | 0.00 | 0.00 | 51 | 1017.3 |
| 20260507181711 | -17 | 103 | 4.8 | 6.4 | 0.00 | 0.00 | 0.00 | 45 | 1017.0 |
| 20260507181708 | 6 | 103 | 4.8 | 9.7 | 0.00 | 0.00 | 0.00 | 45 | 1017.0 |
| 20260507172137 | 9 | 213 | 8.0 | 14.5 | 0.00 | 0.00 | 0.00 | 32 | 1016.9 |
| 20260507170206 | 10 | 207 | 6.4 | 12.9 | 0.00 | 0.00 | 0.00 | 30 | 1016.9 |
| 20260507164530 | 10 | 212 | 8.0 | 24.1 | 0.00 | 0.00 | 0.00 | 28 | 1016.9 |
| 20260507162749 | 11 | 224 | 6.4 | 14.5 | 0.00 | 0.00 | 0.00 | 26 | 1016.7 |
| 20260507162746 | 11 | 224 | 6.4 | 14.5 | 0.00 | 0.00 | 0.00 | 26 | 1016.7 |
| 20260507160806 | 11 | 208 | 6.4 | 19.3 | 0.00 | 0.00 | 0.00 | 23 | 1016.6 |
| 20260507155021 | 12 | 219 | 6.4 | 14.5 | 0.00 | 0.00 | 0.00 | 22 | 1016.5 |
| 20260507153041 | 12 | 216 | 6.4 | 12.9 | 0.00 | 0.00 | 0.00 | 22 | 1016.5 |
| 20260507151321 | 11 | 214 | 8.0 | 16.1 | 0.00 | 0.00 | 0.00 | 22 | 1016.4 |
| 20260507145526 | 11 | 215 | 8.0 | 16.1 | 0.00 | 0.00 | 0.00 | 22 | 1016.4 |
| 20260507143757 | 12 | 221 | 6.4 | 14.5 | 0.00 | 0.00 | 0.00 | 23 | 1016.4 |
| 20260507141931 | 11 | 213 | 8.0 | 12.9 | 0.00 | 0.00 | 0.00 | 22 | 1016.3 |
| 20260507140146 | 11 | 220 | 6.4 | 14.5 | 0.00 | 0.00 | 0.00 | 21 | 1016.2 |
| 20260507134253 | 11 | 231 | 6.4 | 14.5 | 0.00 | 0.00 | 0.00 | 24 | 1016.1 |
| 20260507132611 | 11 | 214 | 6.4 | 12.9 | 0.00 | 0.00 | 0.00 | 24 | 1016.1 |
| 20260507130656 | 12 | 213 | 4.8 | 12.9 | 0.00 | 0.00 | 0.00 | 23 | 1016.1 |
| 20260507124851 | 12 | 216 | 4.8 | 16.1 | 0.00 | 0.00 | 0.00 | 24 | 1016.1 |
| 20260507122957 | 11 | 198 | 4.8 | 11.3 | 0.00 | 0.00 | 0.00 | 26 | 1016.1 |
| 20260507121034 | 11 | 216 | 8.0 | 17.7 | 0.00 | 0.00 | 0.00 | 25 | 1016.1 |
| 20260507115336 | 11 | 210 | 6.4 | 12.9 | 0.00 | 0.00 | 0.00 | 28 | 1016.0 |
| 20260507113338 | 11 | 205 | 6.4 | 17.7 | 0.00 | 0.00 | 0.00 | 28 | 1016.0 |
| 20260507111644 | 11 | 200 | 4.8 | 12.9 | 0.00 | 0.00 | 0.00 | 29 | 1016.0 |
| 20260507105811 | 11 | 200 | 4.8 | 9.7 | 0.00 | 0.00 | 0.00 | 31 | 1015.9 |
| 20260507103856 | 10 | 212 | 9.7 | 17.7 | 0.00 | 0.00 | 0.00 | 31 | 1016.0 |
| 20260507102056 | 11 | 203 | 4.8 | 12.9 | 0.00 | 0.00 | 0.00 | 37 | 1015.9 |